Regional Weather Roundup
Issued by NWS

Home | Current Version | Previous Version | Text Only | Print | Product List | Glossary On
Versions: 1 2 3 4 5 6 7 8 9 10 11 12 13 14 15 16 17 18 19 20 21 22 23 24 25 26 27 28 29 30 31 32 33 34 35 36 37 38 39 40 41 42 43 44 45 46 47 48 49 50
353
ASUS46 KSEW 121910
RWRWA

WASHINGTON REGIONAL WEATHER ROUNDUP
NATIONAL WEATHER SERVICE SEATTLE WA
1100 AM PST FRI FEB 12 2016

NOTE:"FAIR" INDICATES FEW OR NO CLOUDS BELOW 12,000 FEET WITH NO
SIGNIFICANT WEATHER AND/OR OBSTRUCTIONS TO VISIBILITY.

WAZ505-507>509-122000-
SEATTLE, TACOMA, EVERETT, AND VICINITY

CITY           SKY/WX    TMP DP  RH WIND       PRES   REMARKS
EVERETT        LGT RAIN  52  48  86 S12       30.07F
BOEING FIELD   CLOUDY    55  54  96 S9        30.09F
RENTON         LGT RAIN  55  51  86 SE6       30.10F
SEATAC AIRPORT CLOUDY    53  51  93 S9        30.10F
JBLM-MCCHORD   PTSUNNY   52  52 100 S12       30.12R
PUYALLUP       FAIR      52  52 100 MISG        N/A
BREMERTON      PTSUNNY   52  50  93 S13G20    30.12S
JBLM-FT LEWIS  PTSUNNY   53  53 100 S6        30.11R
TACOMA NARROWS PTSUNNY   52  51  97 SW8       30.12S
$$

WAZ001-503-506-510-514-515-122000-
NORTH INTERIOR

CITY           SKY/WX    TMP DP  RH WIND       PRES   REMARKS
BELLINGHAM     LGT RAIN  51  49  92 S9        30.07R
FRIDAY HARBOR  LGT RAIN  50  49  96 W5        30.04F
EASTSOUND      LGT RAIN  54  48  82 SW7G16    30.05R
PORT ANGELES   PTSUNNY   53  50  89 W10       30.05R
EDIZ HOOK      MOCLDY    50  49  97 NW8       30.05S
PORT TOWNSEND  CLOUDY    52  52 100 VRB3      30.06F
NAS WHIDBEY    LGT RAIN  50  49  96 E6        30.10R
ARLINGTON      CLOUDY    54  46  76 S13       30.09S
BURLINGTON     CLOUDY    52  52 100 SW6G15    30.08R FOG
$$

WAZ020-022-039-040-504-511-512-122000-
SOUTHWEST INTERIOR

CITY           SKY/WX    TMP DP  RH WIND       PRES   REMARKS
SHELTON        MOSUNNY   53  48  83 SW14      30.09R
OLYMPIA        PTSUNNY   52  49  89 SW8       30.13R
CHEHALIS       PTSUNNY   54  52  94 CALM      30.14R
KELSO          CLOUDY    52  48  87 S7        30.20R
VANCOUVER      LGT RAIN  50  49  96 SE5       30.17F FOG
SCAPPOOSE, OR  CLOUDY    51  48  89 CALM      30.16S
PORTLAND, OR   LGT RAIN  50  49  96 E8        30.17S FOG
$$

WAZ021-516-517-122000-
WASHINGTON COAST

CITY           SKY/WX    TMP DP  RH WIND       PRES   REMARKS
FORKS          CLOUDY    53  50  89 S8        30.09R
HOQUIAM        CLOUDY    54  51  90 S12       30.13R
ASTORIA, OR    MOSUNNY   55  52  89 SW13G22   30.15R
$$

WAZ019-023-024-040-518-519-122000-
CASCADE MOUNTAINS AND COLUMBIA GORGE

CITY           SKY/WX    TMP DP  RH WIND       PRES   REMARKS
STAMPEDE PASS  NOT AVBL
TROUTDALE, OR  LGT RAIN  49  45  86 NE9       30.19R FOG
THE DALLES, OR CLOUDY    48  44  86 E6        30.19F FOG
$$

WAZ026-027-041>044-520-521-122000-
EAST SLOPES

CITY           SKY/WX    TMP DP  RH WIND       PRES   REMARKS
OMAK           FOG       35  33  92 SE3       30.17F VSB 1/4
WENATCHEE      FOG       38  36  92 NW3       30.18S VSB 1/4
ELLENSBURG     FOG       38  34  85 CALM      30.16F VSB 1/4
YAKIMA         CLOUDY    45  40  82 CALM      30.18F
$$

WAZ028-034-035-122000-
COLUMBIA BASIN

CITY           SKY/WX    TMP DP  RH WIND       PRES   REMARKS
EPHRATA        CLOUDY    41  40  96 CALM      30.18F FOG
MOSES LAKE     CLOUDY    43  40  89 SE7       30.19F FOG
PASCO          MOSUNNY   49  43  80 SE5       30.21F
HERMISTON, OR  MOSUNNY   50  43  77 CALM      30.19F
$$

WAZ036>038-122000-
NORTHEAST WASHINGTON

CITY           SKY/WX    TMP DP  RH WIND       PRES   REMARKS
SPOKANE GEIGER CLOUDY    42  40  92 E5        30.18S FOG
SPOKANE FELTS  LGT RAIN  43  39  86 E3        30.20S
FAIRCHILD AFB  CLOUDY    43  43 100 S7        30.17S
COEURDALENE,ID CLOUDY    39  37  93 NE7       30.17R
DEER PARK      CLOUDY    41  38  89 E6        30.19F
$$

WAZ029>033-122000-
SOUTHEAST WASHINGTON

CITY           SKY/WX    TMP DP  RH WIND       PRES   REMARKS
PULLMAN        CLOUDY    48  38  68 SE9       30.21R
LEWISTON, ID   CLOUDY    50  37  61 E6        30.20S
WALLA WALLA    CLOUDY    46  41  82 CALM      30.19F
PENDLETON, OR  PTSUNNY   44  41  89 SE6       30.17F
$$




USA.gov is the U.S. government's official web portal to all federal, state and local government web resources and services.